Date String (YYYY-MM-DD hh:mm:ss) UTC,Instrument flags,absolute air pressure of the measurement (hPa),sample flow rate (lpm),inlet stack bypass flow (lpm),air temperature of the measurement (°C),ambient temperature measured by the external sensor (°C),aerosol sample conditioner tube jacket temperature (°C),OPC LED temperature (°C),internal box temperature (°C),relative humidity of the measurement (%),span deviation,mass concentration of particles derived from Lorenz-Mie calculation of OPC scattering (μg/m³),mass concentration of particles derived from Lorenz-Mie calculation of OPC scattering (μg/m³),mass concentration of particles derived from Lorenz-Mie calculation of OPC scattering (μg/m³)
DateTimeUTC,F1_M11,P_M11,Q1_M11,Q2_M11,T1_M11,T2_M11,T3_M11,T4_M11,T5_M11,U1_M11,ZSPAN_M11,X0_M11,X2_M11,X1_M11
2023-09-03 21:00:00,SystemResetWarning,0829.3,5.00,000.00,027.6,025.6,000.0,035.9,029.2,29.7,0000.0,0006.52,0003.33,0002.66
2023-09-03 21:01:00,SystemResetWarning,0829.4,5.00,000.00,027.7,026.0,000.0,035.9,029.3,29.6,0000.0,0006.97,0003.30,0002.63
2023-09-03 21:02:00,SystemResetWarning,0829.3,5.00,000.00,027.7,026.3,000.0,036.0,029.4,29.5,0000.0,0007.54,0003.29,0002.62
2023-09-03 21:03:00,SystemResetWarning,0829.4,4.99,000.00,027.8,026.5,000.0,036.0,029.5,29.5,0000.0,0007.92,0003.29,0002.63
2023-09-03 21:04:00,SystemResetWarning,0829.3,4.98,000.00,027.8,025.5,000.0,035.9,029.2,29.5,0000.0,0008.38,0003.28,0002.63
2023-09-03 21:05:00,SystemResetWarning,0829.2,5.00,000.00,027.7,024.4,000.0,035.9,028.8,29.9,0000.0,0008.35,0003.28,0002.63
2023-09-03 21:06:00,SystemResetWarning,0829.2,5.01,000.00,027.6,024.3,000.0,035.8,028.8,29.7,0000.0,0008.24,0003.27,0002.63
2023-09-03 21:07:00,SystemResetWarning,0829.2,5.01,000.00,027.5,024.6,000.0,035.8,028.8,29.7,0000.0,0008.22,0003.25,0002.66
2023-09-03 21:08:00,SystemResetWarning,0829.2,5.00,000.00,027.5,025.0,000.0,035.9,029.0,29.9,0000.0,0008.30,0003.30,0002.71
2023-09-03 21:09:00,SystemResetWarning,0829.1,5.00,000.00,027.6,025.4,000.0,035.9,029.1,29.8,0000.0,0008.03,0003.31,0002.74
2023-09-03 21:10:00,SystemResetWarning,0829.1,5.00,000.00,027.6,025.8,000.0,035.9,029.3,29.6,0000.0,0008.05,0003.31,0002.76
2023-09-03 21:11:00,SystemResetWarning,0829.1,5.00,000.00,027.7,026.1,000.0,035.9,029.4,29.5,0000.0,0008.15,0003.35,0002.79
2023-09-03 21:12:00,SystemResetWarning,0829.1,5.01,000.00,027.8,026.4,000.0,035.9,029.5,29.4,0000.0,0008.17,0003.38,0002.83
2023-09-03 21:13:00,SystemResetWarning,0829.1,4.98,000.00,027.7,025.5,000.0,035.9,029.1,29.2,0000.0,0007.90,0003.42,0002.86
2023-09-03 21:14:00,SystemResetWarning,0829.1,5.00,000.00,027.6,024.3,000.0,035.8,028.7,29.5,0000.0,0007.44,0003.43,0002.89
2023-09-03 21:15:00,SystemResetWarning,0829.1,5.00,000.00,027.5,024.1,000.0,035.8,028.7,29.7,0000.0,0006.72,0003.44,0002.91
2023-09-03 21:16:00,SystemResetWarning,0829.1,5.01,000.00,027.5,024.4,000.0,035.8,028.7,30.2,0000.0,0006.70,0003.44,0002.92
2023-09-03 21:17:00,SystemResetWarning,0829.2,5.00,000.00,027.5,024.8,000.0,035.8,028.9,30.9,0000.0,0006.76,0003.47,0002.97
2023-09-03 21:18:00,SystemResetWarning,0829.2,4.99,000.00,027.5,025.3,000.0,035.8,029.1,31.2,0000.0,0006.55,0003.49,0003.02
2023-09-03 21:19:00,SystemResetWarning,0829.2,5.00,000.00,027.5,025.7,000.0,035.8,029.2,31.0,0000.0,0006.45,0003.50,0003.04
2023-09-03 21:20:00,SystemResetWarning,0829.2,5.01,000.00,027.6,026.0,000.0,035.9,029.3,30.9,0000.0,0006.58,0003.54,0003.09
2023-09-03 21:21:00,SystemResetWarning,0829.3,5.01,000.00,027.7,026.3,000.0,035.9,029.4,30.8,0000.0,0006.67,0003.57,0003.10
2023-09-03 21:22:00,SystemResetWarning,0829.4,4.98,000.00,027.7,026.2,000.0,035.9,029.4,30.6,0000.0,0006.82,0003.59,0003.11
2023-09-03 21:23:00,SystemResetWarning,0829.3,5.00,000.00,027.7,024.9,000.0,035.8,028.9,30.9,0000.0,0006.43,0003.64,0003.12
2023-09-03 21:24:00,SystemResetWarning,0829.4,5.00,000.00,027.5,024.1,000.0,035.8,028.6,31.4,0000.0,0006.26,0003.64,0003.13
2023-09-03 21:25:00,SystemResetWarning,0829.6,5.00,000.00,027.5,024.2,000.0,035.8,028.6,31.9,0000.0,0006.54,0003.69,0003.15
2023-09-03 21:26:00,SystemResetWarning,0829.7,5.01,000.00,027.4,024.5,000.0,035.8,028.7,32.3,0000.0,0006.69,0003.73,0003.18
2023-09-03 21:27:00,SystemResetWarning,0829.7,5.00,000.00,027.4,025.0,000.0,035.8,028.9,32.6,0000.0,0006.99,0003.77,0003.21
2023-09-03 21:28:00,SystemResetWarning,0829.7,5.00,000.00,027.5,025.4,000.0,035.8,029.1,32.9,0000.0,0008.14,0003.82,0003.22
2023-09-03 21:29:00,SystemResetWarning,0829.8,5.00,000.00,027.5,025.8,000.0,035.8,029.2,32.9,0000.0,0008.29,0003.84,0003.21
2023-09-03 21:30:00,SystemResetWarning,0829.7,5.00,000.00,027.6,026.1,000.0,035.9,029.3,32.2,0000.0,0008.31,0003.82,0003.20
2023-09-03 21:31:00,SystemResetWarning,0829.9,5.00,000.00,027.7,026.4,000.0,035.9,029.4,31.5,0000.0,0008.27,0003.79,0003.20
2023-09-03 21:32:00,SystemResetWarning,0830.0,4.97,000.00,027.7,026.4,000.0,035.9,029.5,35.7,0000.0,0008.28,0003.80,0003.20
2023-09-03 21:33:00,SystemResetWarning,0830.1,5.04,000.00,027.8,025.1,000.0,035.8,029.1,33.9,0000.0,0008.18,0003.79,0003.22
2023-09-03 21:34:00,SystemResetWarning,0830.0,4.96,000.00,027.8,024.1,000.0,035.8,028.8,33.2,0000.0,0008.11,0003.77,0003.22
2023-09-03 21:35:00,SystemResetWarning,0829.8,5.03,000.00,027.8,024.0,000.0,035.8,028.8,33.2,0000.0,0008.58,0003.74,0003.22
2023-09-03 21:36:00,SystemResetWarning,0829.7,4.97,000.00,027.8,024.3,000.0,035.8,028.8,35.3,0000.0,0008.56,0003.70,0003.21
2023-09-03 21:37:00,SystemResetWarning,0829.8,5.03,000.00,028.0,024.7,000.0,035.9,029.0,37.6,0000.0,0008.53,0003.68,0003.22
2023-09-03 21:38:00,SystemResetWarning,0829.9,5.00,000.00,028.3,025.2,000.0,035.9,029.3,36.9,0000.0,0008.53,0003.68,0003.22
2023-09-03 21:39:00,SystemResetWarning,0830.0,5.01,000.00,028.7,025.6,000.0,036.0,029.5,34.6,0000.0,0007.68,0003.66,0003.22
2023-09-03 21:40:00,SystemResetWarning,0830.0,4.97,000.00,029.0,025.9,000.0,036.1,029.7,34.7,0000.0,0007.55,0003.64,0003.22
2023-09-03 21:41:00,SystemResetWarning,0830.0,5.04,000.00,029.3,026.2,000.0,036.2,029.8,34.6,0000.0,0007.67,0003.69,0003.24
2023-09-03 21:42:00,SystemResetWarning,0830.0,4.96,000.00,029.5,026.5,000.0,036.3,029.9,30.9,0000.0,0007.72,0003.72,0003.25
2023-09-03 21:43:00,SystemResetWarning,0829.8,5.02,000.00,029.7,026.7,000.0,036.5,030.0,29.0,0000.0,0007.66,0003.71,0003.26
2023-09-03 21:44:00,SystemResetWarning,0829.8,4.99,000.00,029.8,026.8,000.0,036.7,030.0,28.7,0000.0,0007.75,0003.74,0003.26
2023-09-03 21:45:00,SystemResetWarning,0829.7,4.99,000.00,029.8,025.5,000.0,036.7,029.6,28.2,0000.0,0007.66,0003.71,0003.26
2023-09-03 21:46:00,SystemResetWarning,0829.7,5.01,000.00,029.7,024.2,000.0,036.7,029.2,28.0,0000.0,0007.03,0003.70,0003.27
2023-09-03 21:47:00,SystemResetWarning,0829.7,5.01,000.00,029.6,023.8,000.0,036.8,029.1,28.1,0000.0,0006.98,0003.73,0003.27
2023-09-03 21:48:00,SystemResetWarning,0829.7,5.00,000.00,029.5,024.0,000.0,036.8,029.0,27.9,0000.0,0007.05,0003.72,0003.27
2023-09-03 21:49:00,SystemResetWarning,0829.7,5.01,000.00,029.4,024.4,000.0,036.9,029.2,28.0,0000.0,0006.93,0003.71,0003.26
2023-09-03 21:50:00,SystemResetWarning,0829.7,4.99,000.00,029.4,024.9,000.0,037.0,029.3,28.4,0000.0,0006.93,0003.73,0003.28
2023-09-03 21:51:00,SystemResetWarning,0829.7,5.00,000.00,029.4,025.4,000.0,037.0,029.5,28.2,0000.0,0006.96,0003.75,0003.29
2023-09-03 21:52:00,SystemResetWarning,0829.7,5.00,000.00,029.4,025.8,000.0,037.1,029.6,28.6,0000.0,0006.73,0003.72,0003.30
2023-09-03 21:53:00,SystemResetWarning,0829.7,5.01,000.00,029.4,026.1,000.0,037.1,029.7,28.1,0000.0,0007.57,0003.69,0003.29
2023-09-03 21:54:00,SystemResetWarning,0829.7,5.00,000.00,029.4,026.4,000.0,037.2,029.8,28.3,0000.0,0007.76,0003.64,0003.27
2023-09-03 21:55:00,SystemResetWarning,0829.7,5.00,000.00,029.4,026.7,000.0,037.2,029.9,28.2,0000.0,0007.76,0003.60,0003.25
2023-09-03 21:56:00,SystemResetWarning,0829.6,4.99,000.00,029.5,026.6,000.0,037.2,029.9,35.7,0000.0,0007.74,0003.59,0003.22
2023-09-03 21:57:00,SystemResetWarning,0829.6,5.00,000.00,029.5,025.3,000.0,037.2,029.5,35.1,0000.0,0007.73,0003.57,0003.20
2023-09-03 21:58:00,SystemResetWarning,0829.5,4.99,000.00,029.6,024.2,000.0,037.1,029.3,36.8,0000.0,0007.69,0003.55,0003.17
2023-09-03 21:59:00,SystemResetWarning,0829.4,5.02,000.00,029.8,024.1,000.0,037.1,029.4,37.0,0000.0,0007.76,0003.53,0003.15
